Regional Weather Roundup
Issued by NWS

Home | Current Version | Previous Version | Text Only | Print | Product List | Glossary On
Versions: 1 2 3 4 5 6 7 8 9 10 11 12 13 14 15 16 17 18 19 20 21 22 23 24 25 26 27 28 29 30 31 32 33 34 35 36 37 38 39 40 41 42 43 44 45 46 47 48 49 50
000
ASUS43 KMPX 251110
RWRMN
WEATHER ROUNDUP FOR MINNESOTA
NATIONAL WEATHER SERVICE TWIN CITIES/CHANHASSEN MN
600 AM CDT SUN SEP 25 2016


NOTE: "FAIR" INDICATES FEW OR NO CLOUDS BELOW 12,000 FEET WITH NO
SIGNIFICANT WEATHER AND/OR OBSTRUCTIONS TO VISIBILITY. N/A MEANS
CURRENT SKY AND/OR WEATHER CONDITIONS ARE NOT AVAILABLE.

MNZ060>063-068>070-251200-
   Twin Cities Metro

CITY           SKY/WX    TMP DP  RH WIND       PRES   REMARKS
TWIN CITIES    CLOUDY    68  66  93 S8        29.89F FOG
ST PAUL        CLOUDY    67  65  93 S9        29.90S
CRYSTAL        LGT RAIN  68  65  90 SE7       29.87S FOG
BLAINE         DRIZZLE   70  70 100 S8        29.88S
LAKEVILLE      DRIZZLE   66  66 100 S8G17     29.89F
EDEN PRAIRIE   LGT RAIN  70  66  87 S10       29.87F FOG
LAKEVILLE      DRIZZLE   66  66 100 S8G17     29.89F
SOUTH ST PAUL  MOCLDY    67  66  96 SE6       29.90S FOG
LAKE ELMO      DRIZZLE   68  64  88 SE8       29.91F
$$
MNZ001>005-007-008-013>017-022>024-027-028-251200-
   Northwest Minnesota

CITY           SKY/WX    TMP DP  RH WIND       PRES   REMARKS
BEMIDJI        CLOUDY    64  64  98 S7        29.78S
HALLOCK        CLEAR     63  61  94 S10       29.67F
ROSEAU         PTCLDY    64  59  82 S7        29.72F
WARROAD        PTCLDY    64  61  88 S8        29.73F
THIEF RVR FALL CLEAR     61  59  93 S10       29.73F
CROOKSTON      CLEAR     57  54  88 SW15      29.73S
FOSSTON        PTCLDY    61  57  88 S8        29.77S
DETROIT LAKES  PTCLDY    57  50  77 SW9       29.81S
MOORHEAD       CLEAR     54  48  82 S8        29.79F
PARK RAPIDS    CLOUDY    66  63  90 SW8       29.79S
MAHNOMEN       FAIR      56  52  88 S14       29.78R
$$
MNZ006-009>011-018-025>026-251200-
   North Central Minnesota

CITY           SKY/WX    TMP DP  RH WIND       PRES   REMARKS
BAUDETTE       CLOUDY    63  62  97 SE8       29.75F
FLAG ISLAND    MOCLDY    63  61  94 S14       29.72F
INTL FALLS     LGT RAIN  62  60  93 SE9       29.79F
WASKISH        RAIN      64  63  94 S6        29.76F
BIG FORK       LGT RAIN  63  61  94 SE7       29.80F
LONGVILLE      RAIN      64  63  94 S8        29.80F
GRAND RAPIDS   RAIN      63  62  97 SE9       29.83F
ORR            LGT RAIN  61  57  88 SE6       29.81F
COOK           LGT RAIN  61  61 100 SE8G20    29.85F
WALKER         CLOUDY    65  64  96 S7        29.78F
$$
MNZ012-019>021-037-251200-
   Northeast Minnesota

CITY           SKY/WX    TMP DP  RH WIND       PRES   REMARKS
DULUTH         LGT RAIN  60  59  96 SE10      29.90F FOG
ELY            CLOUDY    61  57  88 SE12G20   29.90F
HIBBING        LGT RAIN  60  60 100 SE15G23   29.85F FOG
EVELETH        DRIZZLE   60  59  96 SE9G17    29.88F
DULUTH HARBOR  CLOUDY    61  57  88 NE9       29.90F
TWO HARBORS    CLOUDY    63  57  82 E9        29.91F
SILVER BAY     CLOUDY    61  57  88 E3        29.93F
GRAND MARAIS     N/A     61  58  90 NE3       29.98F
G MARAIS ARPRT CLOUDY    55  52  88 SE6       30.00F
$$
MNZ029>031-032-039>041-046>048-054>057-064-251200-
   West Central Minnesota

CITY           SKY/WX    TMP DP  RH WIND       PRES   REMARKS
FERGUS FALLS   CLEAR     54  48  82 SW7       29.84F
MORRIS         PTCLDY    54  48  82 S7        29.85F
ALEXANDRIA     CLOUDY    58  49  72 W9        29.86F
ELBOW LAKE     FAIR      51  49  92 SW8       29.85F
GLENWOOD       PTCLDY    57  52  82 SW10      29.87S
APPLETON       PTCLDY    55  46  71 SW8       29.87F
BENSON         PTCLDY    55  48  76 W6        29.88S
MADISON          N/A     57  48  72 SW9       29.88F
WILLMAR        CLOUDY    57  55  94 W7        29.90S
$$
MNZ033>034-036-042>043-049>051-058-059-251200-
   Central Minnesota

CITY           SKY/WX    TMP DP  RH WIND       PRES   REMARKS
ST CLOUD       CLOUDY    66  66 100 S8        29.85S
SAUK CENTRE    CLOUDY    58  53  84 W8        29.86R
PAYNESVILLE    DRIZZLE   58  53  84 W9        29.88R
AITKIN         MIX PCPN  68  63  83 S13G20    29.81F
PINE RIVER     LGT RAIN  64  64 100 S6        29.84F
BRAINERD       CLOUDY    66  64  93 S10       29.82S
STAPLES        LGT RAIN  64  64 100 S7        29.81F
LONG PRAIRIE   LGT RAIN  63  61  94 S9        29.85R
LITTLE FALLS   CLOUDY    63  61  94 S3        29.84S
LITCHFIELD     RAIN      66  66 100 CALM      29.88R
BUFFALO        RAIN      64  61  89 S6        29.89S
MAPLE LAKE     RAIN      66  65  95 S6        29.88R
HUTCHINSON     LGT RAIN  67  65  94 S5        29.90R
$$
MNZ037-044-045-052-053-251200-
   East Central Minnesota

CITY           SKY/WX    TMP DP  RH WIND       PRES   REMARKS
PRINCETON      RAIN      70  66  88 S9G16     29.87R
MORA           DRIZZLE   64  63  94 S10       29.87F
CAMBRIDGE      DRIZZLE   70  64  83 SE12      29.85F
MOOSE LAKE     DRIZZLE   64  61  88 S9        29.85F
HINCKLEY       CLOUDY    64  64 100 SE8       29.88F
CLOQUET        CLOUDY    63  61  94 SE7       29.88F FOG
MCGREGOR       CLOUDY    64  63  94 SE13G24   29.84F
$$
MNZ071>073-080-081-089-090-097-098-251200-
   Southwest Minnesota

CITY           SKY/WX    TMP DP  RH WIND       PRES   REMARKS
MONTEVIDEO     CLOUDY    55  54  94 W8        29.91S
GRANITE FALLS  CLOUDY    57  52  81 SW8       29.92S
CANBY          CLOUDY    55  47  74 SW12G18   29.91R
MARSHALL       CLOUDY    56  47  71 W15       29.91F
REDWOOD FALLS  CLOUDY    59  51  75 W10       29.91S
OLIVIA         LGT RAIN  55  52  88 W6        29.90S
PIPESTONE      PTCLDY    52  46  82 W8        29.96S
WINDOM         CLOUDY    57  52  82 W3        29.95S
WORTHINGTON    MOCLDY    56  48  74 W15G23    29.96S
JACKSON        CLOUDY    54  52  94 W9        29.96R
TRACY          CLOUDY    58  50  75 W9G16     29.92S
SLAYTON        MOCLDY    55  48  76 W10       29.96R
$$
MNZ065>067-074>077-082>085-091>093-251200-
   South Central Minnesota

CITY           SKY/WX    TMP DP  RH WIND       PRES   REMARKS
MANKATO        HVY RAIN  67  66  97 S10       29.90F
NEW ULM        LGT RAIN  61  61 100 SW7       29.92R
ST JAMES       RAIN      64  61  88 SW8       29.93R
FAIRMONT       LGT RAIN  64  62  93 SW8       29.94R
GLENCOE        RAIN      63  63  99 S6        29.90S
FARIBAULT      LGT RAIN  68  66  94 S8        29.91F
OWATONNA       RAIN      70  66  88 S7        29.92S
WASECA         DRIZZLE   64  64 100 S10       29.93S
ALBERT LEA     RAIN      66  66 100 S6        29.93R
$$
MNZ078>079-086>088-094>096-251200-
   Southeast Minnesota

CITY           SKY/WX    TMP DP  RH WIND       PRES   REMARKS
ROCHESTER      LGT RAIN  68  67  96 S12       29.95S FOG
RED WING       LGT RAIN  70  66  88 SE8       29.91F
DODGE CENTER   CLOUDY    66  66 100 S9        29.93F FOG
WINONA         CLOUDY    70  64  83 SE5       29.94F
AUSTIN         CLOUDY    68  66  94 S8        29.94S FOG
PRESTON        CLOUDY    65  64  93 S7        29.96F FOG
$$
ABBREVIATIONS USED IN REMARKS
   TC - TEMPERATURES IN CELSIUS
  WCI - WIND CHILL INDEX
   HX - HEAT INDEX
  VSB - VISIBILITY
$$




USA.gov is the U.S. government's official web portal to all federal, state and local government web resources and services.